[[{"header":{"parameterUnit":"m.s-1","parameterCategory":1,"la1":30.2991,"la2":30.254,"lo1":-89.0895,"lo2":-89.0444,"dy":0.0017,"dx":0.0017,"nx":28,"ny":28,"refTime":"2024-06-12T21:00:00:Z","depth":0,"parameterNumber":2,"parameterNumberName":"U-component_of_WINDS"},"data":[0,0,0,0,0,0,0,0,0,0,0,0,0,0,0,0,0,0,0,0,0,0,0,0,0,0,0,0,0,0,0,0,0,0,0,0,0,0,0,0,0,0,0,0,0,0,0,0,0,0,0,0,0,0,0,0,0,0,-1.2887,-1.2886,0,-1.2832,-1.2831,-1.283,-1.273,-1.2728,-1.2727,-1.2725,-1.2671,-1.2671,-1.2672,0,0,0,0,0,0,0,0,0,0,0,0,0,-1.2908,-1.2908,-1.2887,-1.2886,-1.2885,-1.2832,-1.2831,-1.283,-1.2731,-1.2728,-1.2726,-1.2724,-1.2671,-1.2671,-1.2672,0,0,0,0,0,0,0,0,0,0,0,0,0,-1.2881,-1.2908,-1.2887,-1.2829,-1.2823,-1.2832,-1.2831,-1.283,-1.2731,-1.2728,-1.2725,-1.2723,-1.2671,-1.2671,-1.2672,-1.2733,0,0,-1.2674,-1.2674,0,0,0,0,0,0,0,0,-1.2882,-1.288,-1.2838,-1.2833,-1.2827,-1.2785,-1.2819,-1.2798,-1.2732,-1.2766,-1.2725,-1.2721,-1.2711,-1.2708,-1.2705,-1.273,-1.2728,-1.2674,-1.2674,-1.2674,-1.2674,0,0,0,0,0,0,0,-1.2884,-1.2882,-1.2865,-1.2838,-1.2831,-1.2807,-1.28,-1.2814,-1.2756,-1.2763,-1.2756,-1.275,-1.2708,-1.2704,-1.2703,-1.2727,-1.2674,-1.2674,-1.2674,-1.2675,-1.2801,-1.2804,0,0,0,0,0,0,-1.2894,-1.2884,-1.2867,-1.2863,-1.2848,-1.2809,-1.2801,-1.2801,-1.2755,-1.2746,-1.2753,-1.2746,-1.2705,-1.2702,-1.27,-1.2769,-1.2674,-1.2675,-1.2675,-1.2798,-1.2802,-1.2805,0,0,0,0,0,0,-1.2895,-1.2894,-1.2869,-1.2872,-1.2867,-1.2811,-1.2813,-1.2802,-1.2798,-1.2748,-1.2737,-1.276,-1.2702,-1.27,-1.2725,-1.2766,-1.2675,-1.2675,-1.2794,-1.2799,-1.2803,-1.2908,0,0,0,0,0,0,-1.2896,-1.2895,-1.2917,-1.2873,-1.2867,-1.2895,-1.2815,-1.2803,-1.2799,-1.2789,-1.2751,-1.2742,-1.27,-1.2725,-1.2726,-1.2765,-1.2676,-1.279,-1.2796,-1.2802,-1.2901,-1.2916,-1.2928,0,0,0,0,0,-1.2897,-1.2949,-1.2918,-1.2917,-1.2893,-1.2897,-1.2894,-1.2843,-1.2803,-1.2825,-1.2792,-1.2744,-1.2761,-1.2729,-1.2729,-1.2769,-1.2788,-1.2795,-1.2801,-1.2895,-1.2913,-1.2928,0,0,0,0,0,0,-1.3,-1.2942,-1.2908,-1.2947,-1.2928,-1.288,-1.2907,-1.2864,-1.2857,-1.2848,-1.2786,-1.2778,-1.2813,-1.2793,-1.2758,-1.2826,-1.2767,-1.2774,-1.2838,-1.2854,-1.2868,-1.2873,-1.2676,0,0,0,0,0,-1.3027,-1.3035,-1.2984,-1.3023,-1.3015,-1.2963,-1.2963,-1.2925,-1.2903,-1.2895,-1.2864,-1.2846,-1.2847,-1.2849,-1.2848,-1.2897,-1.2888,-1.2924,-1.2938,-1.295,-1.2957,-1.2983,-1.2999,-1.2827,-1.2827,-1.2827,0,0,-1.3084,-1.3053,-1.3061,-1.3043,-1.3024,-1.3034,-1.2957,-1.2971,-1.2978,-1.2897,-1.292,-1.2897,-1.2872,-1.291,-1.2925,-1.2895,-1.3002,-1.2958,-1.2968,-1.2969,-1.2991,-1.3008,-1.3022,-1.2832,-1.2831,-1.283,0,0,-1.3192,-1.3169,-1.3199,-1.3181,-1.3153,-1.3118,-1.3125,-1.3084,-1.3066,-1.3087,-1.3027,-1.3035,-1.3038,-1.3023,-1.3016,-1.3118,-1.3073,-1.3119,-1.3192,-1.3217,-1.3231,-1.3243,-1.328,-1.3294,-1.3126,-1.3126,-1.3127,0,-1.3266,-1.3278,-1.322,-1.3238,-1.3232,-1.3158,-1.3189,-1.3175,-1.3148,-1.3146,-1.3112,-1.3114,-1.3092,-1.3126,-1.3151,-1.3147,-1.3155,-1.3124,-1.3233,-1.3244,-1.3255,-1.329,-1.3304,-1.3132,-1.3132,-1.3131,-1.313,0,-1.3371,-1.338,-1.3408,-1.3383,-1.338,-1.3404,-1.3351,-1.3355,-1.3318,-1.3287,-1.331,-1.3281,-1.3272,-1.3277,-1.3241,-1.3306,-1.3288,-1.3244,-1.3184,-1.3278,-1.331,-1.3323,-1.3141,-1.3139,-1.3137,-1.3135,0,0,-1.3543,-1.3486,-1.3497,-1.3485,-1.3448,-1.3455,-1.3476,-1.3466,-1.3471,-1.3455,-1.3472,-1.3476,-1.3435,-1.3427,-1.3388,-1.3411,-1.3495,-1.3364,-1.3363,-1.3391,-1.3566,-1.3601,-1.3617,-1.3464,-1.3466,-1.3468,-1.3569,0,-1.3645,-1.3677,-1.3626,-1.367,-1.3679,-1.3609,-1.3627,-1.3607,-1.3578,-1.3581,-1.3549,-1.3554,-1.3499,-1.3494,-1.3513,-1.3481,-1.3529,-1.3472,-1.3481,-1.3482,-1.3491,-1.3634,-1.367,-1.3766,-1.3581,-1.3583,-1.3584,0,-1.3767,-1.3756,-1.3802,-1.3762,-1.3763,-1.3781,-1.3768,-1.3772,-1.3748,-1.3725,-1.3716,-1.367,-1.3689,-1.3629,-1.3655,-1.3617,-1.3617,-1.3602,-1.3604,-1.3605,-1.354,-1.3639,-1.3796,-1.3811,-1.3603,-1.3602,-1.36,0,-1.3891,-1.3887,-1.3914,-1.3905,-1.3859,-1.3874,-1.3855,-1.3828,-1.3826,-1.3815,-1.3813,-1.3805,-1.3801,-1.3796,-1.3749,-1.371,-1.3781,-1.3717,-1.3764,-1.3765,-1.3783,-1.3783,-1.3944,-1.3781,-1.3781,-1.3781,-1.378,0,-1.401,-1.4041,-1.3969,-1.3985,-1.4018,-1.3959,-1.3993,-1.3968,-1.3944,-1.3955,-1.3894,-1.3906,-1.3842,-1.3847,-1.381,-1.3838,-1.3836,-1.3819,-1.381,-1.3826,-1.3828,-1.3827,-1.3819,-1.3784,-1.3783,-1.3783,-1.3782,0,-1.4154,-1.4107,-1.4131,-1.4085,-1.4075,-1.4101,-1.4062,-1.4076,-1.4043,-1.4058,-1.4058,-1.4006,-1.4009,-1.3961,-1.3955,-1.393,-1.3975,-1.3952,-1.3983,-1.3977,-1.4027,-1.4023,-1.4193,-1.4213,-1.4036,-1.4038,-1.4039,0,-1.4234,-1.4256,-1.4213,-1.4215,-1.42,-1.4205,-1.4202,-1.4145,-1.4145,-1.4118,-1.4136,-1.4134,-1.4129,-1.4137,-1.41,-1.4095,-1.4073,-1.4132,-1.4072,-1.4087,-1.4075,-1.4075,-1.4078,-1.4146,-1.4148,-1.415,-1.4151,0,-1.4382,-1.4358,-1.4355,-1.4346,-1.4344,-1.4333,-1.4319,-1.4325,-1.4262,-1.4265,-1.4267,-1.4263,-1.4257,-1.4256,-1.4243,-1.4225,-1.4179,-1.417,-1.4181,-1.4199,-1.4217,-1.4209,-1.402,-1.4167,-1.4166,-1.4165,-1.4164,-1.4163,-1.4498,-1.4514,-1.4486,-1.4486,-1.4469,-1.4457,-1.4468,-1.4436,-1.4436,-1.4426,-1.4392,-1.44,-1.4375,-1.4354,-1.4339,-1.4345,-1.4316,-1.4332,-1.4336,-1.4341,-1.4351,-1.4214,-1.4343,-1.4342,-1.4342,-1.4341,-1.4341,0,-1.4644,-1.4622,-1.4622,-1.4604,-1.4604,-1.4558,-1.454,-1.4544,-1.4551,-1.4532,-1.4528,-1.4531,-1.4529,-1.4491,-1.4486,-1.4498,-1.4477,-1.4499,-1.4498,-1.4495,-1.4377,-1.4369,-1.4516,-1.4516,-1.4516,-1.4516,-1.4516,-1.4516,-1.472,-1.4746,-1.4718,-1.4735,-1.4712,-1.472,-1.4713,-1.4702,-1.4686,-1.4692,-1.469,-1.4665,-1.4638,-1.463,-1.4627,-1.4616,-1.4617,-1.4647,-1.4629,-1.452,-1.4503,-1.4487,-1.4479,-1.4647,-1.4647,-1.4747,-1.4748,-1.4748]},{"header":{"parameterUnit":"m.s-1","parameterCategory":1,"la1":30.2991,"la2":30.254,"lo1":-89.0895,"lo2":-89.0444,"dy":0.0017,"dx":0.0017,"nx":28,"ny":28,"refTime":"2024-06-12T21:00:00:Z","depth":0,"parameterNumber":3,"parameterNumberName":"V-component_of_WINDS"},"data":[0,0,0,0,0,0,0,0,0,0,0,0,0,0,0,0,0,0,0,0,0,0,0,0,0,0,0,0,0,0,0,0,0,0,0,0,0,0,0,0,0,0,0,0,0,0,0,0,0,0,0,0,0,0,0,0,0,0,0.2805,0.2805,0,0.2764,0.2764,0.2763,0.2773,0.2774,0.2775,0.2776,0.2732,0.273,0.2728,0,0,0,0,0,0,0,0,0,0,0,0,0,0.289,0.2888,0.2805,0.2805,0.2804,0.2764,0.2764,0.2763,0.2773,0.2774,0.2775,0.2776,0.2733,0.2731,0.2728,0,0,0,0,0,0,0,0,0,0,0,0,0,0.2852,0.2888,0.2806,0.2805,0.2804,0.2765,0.2764,0.2763,0.2773,0.2774,0.2775,0.2777,0.2733,0.2731,0.2728,0.2686,0,0,0.2719,0.2718,0,0,0,0,0,0,0,0,0.2854,0.2848,0.2805,0.2805,0.2804,0.2775,0.2778,0.2737,0.2773,0.2785,0.2776,0.2777,0.2745,0.2742,0.2731,0.2684,0.2682,0.2719,0.2717,0.2716,0.2715,0,0,0,0,0,0,0,0.2856,0.285,0.2789,0.2805,0.2804,0.2805,0.2801,0.277,0.2759,0.2784,0.2784,0.2779,0.2745,0.2734,0.273,0.2682,0.2719,0.2716,0.2715,0.2714,0.2596,0.2595,0,0,0,0,0,0,0.286,0.2852,0.279,0.2788,0.2832,0.2803,0.2798,0.2783,0.2759,0.2757,0.2779,0.278,0.2738,0.2734,0.2729,0.2676,0.2716,0.2713,0.2712,0.2597,0.2596,0.2594,0,0,0,0,0,0,0.2862,0.2854,0.2792,0.282,0.2813,0.28,0.2783,0.2782,0.277,0.2755,0.2753,0.2769,0.2739,0.2733,0.2696,0.2675,0.2712,0.2709,0.2599,0.2597,0.2595,0.2572,0,0,0,0,0,0,0.2864,0.2855,0.2839,0.282,0.2811,0.2761,0.2782,0.278,0.2766,0.2767,0.2746,0.2743,0.274,0.2701,0.2694,0.2672,0.2707,0.2601,0.2598,0.2596,0.2575,0.2569,0.2565,0,0,0,0,0,0.2867,0.2835,0.2839,0.2831,0.2792,0.276,0.2754,0.2751,0.2764,0.2748,0.2738,0.2744,0.2679,0.2697,0.2689,0.2666,0.2602,0.2599,0.2596,0.2577,0.257,0.2565,0,0,0,0,0,0,0.2852,0.2832,0.2836,0.2797,0.278,0.2761,0.2741,0.2745,0.2723,0.2726,0.2722,0.2717,0.2679,0.2669,0.2689,0.2623,0.2642,0.2637,0.263,0.2624,0.262,0.2621,0.2705,0,0,0,0,0,0.2844,0.2821,0.2805,0.2772,0.2763,0.2753,0.2739,0.2738,0.272,0.2713,0.27,0.2682,0.2657,0.2641,0.2617,0.2574,0.2568,0.2554,0.255,0.2546,0.2541,0.2514,0.2507,0.2584,0.2584,0.2584,0,0,0.2828,0.2814,0.2799,0.2768,0.2755,0.2729,0.2747,0.272,0.27,0.2708,0.2672,0.2663,0.2642,0.2601,0.2583,0.2592,0.2518,0.2542,0.2539,0.2536,0.251,0.2503,0.2497,0.2582,0.2582,0.2582,0,0,0.2784,0.2772,0.2742,0.2728,0.2708,0.2701,0.2694,0.2675,0.2668,0.2633,0.2638,0.2614,0.2573,0.2557,0.2543,0.2492,0.2496,0.2485,0.2459,0.2433,0.2427,0.2422,0.24,0.2393,0.2481,0.248,0.248,0,0.2766,0.2728,0.2726,0.2697,0.2682,0.2689,0.2658,0.2644,0.2617,0.2606,0.2617,0.2563,0.255,0.2504,0.2492,0.2482,0.2472,0.2486,0.2428,0.2423,0.2418,0.2397,0.239,0.2479,0.2479,0.2479,0.2479,0,0.2705,0.2678,0.2656,0.2629,0.2612,0.2582,0.2575,0.2558,0.2558,0.2551,0.2513,0.2497,0.247,0.246,0.246,0.2413,0.2419,0.2429,0.2448,0.2409,0.2389,0.2382,0.2477,0.2477,0.2478,0.2478,0,0,0.2649,0.2621,0.2613,0.2599,0.2577,0.2556,0.2526,0.2499,0.2483,0.2464,0.2437,0.2402,0.241,0.2395,0.2394,0.2372,0.2329,0.2384,0.2384,0.2372,0.2273,0.2263,0.2254,0.2333,0.2331,0.233,0.2274,0,0.26,0.2547,0.2545,0.2496,0.247,0.2476,0.2449,0.2432,0.2424,0.24,0.2392,0.2365,0.238,0.2371,0.2349,0.2338,0.2308,0.2343,0.2305,0.2304,0.2307,0.2245,0.2235,0.2182,0.2267,0.2265,0.2264,0,0.2537,0.2515,0.2463,0.2443,0.2432,0.2408,0.2382,0.236,0.234,0.2336,0.2318,0.232,0.2287,0.2309,0.2263,0.2287,0.2272,0.2264,0.2262,0.2255,0.2279,0.2234,0.2166,0.2156,0.2253,0.2254,0.2255,0,0.2497,0.2455,0.2418,0.2407,0.2383,0.2366,0.2355,0.2336,0.232,0.2297,0.2286,0.226,0.2245,0.2225,0.2219,0.2236,0.2172,0.2194,0.2165,0.2165,0.2149,0.215,0.2074,0.2145,0.2145,0.2145,0.2145,0,0.2441,0.2409,0.24,0.2377,0.234,0.2337,0.23,0.2291,0.2274,0.2248,0.2253,0.2228,0.2224,0.2198,0.2193,0.2154,0.2148,0.2142,0.2141,0.214,0.214,0.2127,0.213,0.2143,0.2143,0.2144,0.2144,0,0.239,0.2383,0.2342,0.2323,0.2317,0.229,0.2273,0.225,0.2243,0.221,0.2202,0.2191,0.216,0.2153,0.2118,0.2114,0.2067,0.2071,0.2073,0.2072,0.2043,0.2044,0.1954,0.194,0.2023,0.2022,0.2022,0,0.2353,0.2328,0.2305,0.2288,0.2276,0.2249,0.2232,0.2229,0.221,0.2185,0.2164,0.2135,0.2111,0.2062,0.205,0.2022,0.2023,0.1993,0.2018,0.2017,0.2018,0.2018,0.2014,0.1987,0.1986,0.1986,0.1985,0,0.2287,0.2285,0.226,0.2233,0.2212,0.2191,0.2171,0.2157,0.2151,0.213,0.2099,0.208,0.2043,0.2012,0.1984,0.1972,0.1976,0.1978,0.1969,0.1966,0.1967,0.1962,0.2056,0.1979,0.1979,0.198,0.198,0.198,0.224,0.2216,0.2196,0.2168,0.2152,0.2133,0.211,0.21,0.2074,0.2043,0.2043,0.2008,0.1988,0.195,0.1937,0.1909,0.1918,0.1906,0.1902,0.1898,0.1894,0.1974,0.1904,0.1904,0.1905,0.1905,0.1905,0,0.2171,0.2158,0.2133,0.2104,0.2081,0.2088,0.2066,0.2046,0.2016,0.1996,0.1972,0.1935,0.1906,0.1891,0.1862,0.1842,0.1843,0.1834,0.1833,0.183,0.189,0.1898,0.1833,0.1833,0.1833,0.1833,0.1833,0.1834,0.2133,0.2093,0.2088,0.204,0.2028,0.1993,0.198,0.1961,0.1946,0.1904,0.1879,0.1871,0.1853,0.1822,0.1794,0.1791,0.1778,0.1767,0.1764,0.1819,0.1826,0.1833,0.1841,0.1765,0.1765,0.1706,0.1706,0.1705]}]]